FW2343 Weather Reports


Display with metric or nautical units.
time (UTC)temp
F
wind
direction
speed
MPH
gust
MPH
rain 1hr
in
rain 24hr
in
rain mn
in
humidity
%
barometer
mb
20260509044207 51 213 1.0 4.0 0.00 0.00 0.00 92 1013.2
20260509043707 51 227 2.0 4.0 0.00 0.00 0.00 92 1013.1
20260509042708 51 239 1.0 4.0 0.00 0.00 0.00 92 1012.9
20260509042211 51 219 2.0 4.0 0.00 0.00 0.00 91 1012.9
20260509041717 51 188 2.0 4.0 0.00 0.00 0.00 92 1012.9
20260509041214 51 239 2.0 4.0 0.00 0.00 0.00 91 1013.0
20260509040719 51 246 2.0 4.0 0.00 0.00 0.00 91 1013.0
20260509040219 51 212 2.0 6.0 0.00 0.00 0.00 91 1012.9
20260509035716 51 208 2.0 6.0 0.00 0.00 0.00 91 1012.9
20260509034708 52 205 2.0 5.0 0.00 0.00 0.00 91 1012.8
20260509034217 52 206 3.0 5.0 0.00 0.00 0.00 91 1012.9
20260509033705 52 215 3.0 5.0 0.00 0.00 0.00 91 1013.0
20260509033206 52 232 1.0 4.0 0.00 0.00 0.00 91 1013.1
20260509032711 52 223 2.0 4.0 0.00 0.00 0.00 91 1012.9
20260509032210 52 234 2.0 3.0 0.00 0.00 0.00 91 1012.9
20260509031715 52 220 2.0 3.0 0.00 0.00 0.00 91 1013.1
20260509030712 52 243 0.0 3.0 0.00 0.00 0.00 91 1013.0
20260509030208 52 233 1.0 3.0 0.00 0.00 0.00 91 1012.9
20260509025706 52 232 2.0 2.0 0.00 0.00 0.00 91 1013.0
20260509025236 52 253 1.0 3.0 0.00 0.00 0.00 91 1012.9
20260509024219 52 237 2.0 3.0 0.00 0.00 0.00 91 1013.0
20260509023717 52 212 1.0 3.0 0.00 0.00 0.00 91 1013.0
20260509023209 53 209 0.0 2.0 0.00 0.00 0.00 91 1013.1
20260509022710 53 237 1.0 4.0 0.00 0.00 0.00 91 1013.2
20260509022218 53 244 1.0 4.0 0.00 0.00 0.00 90 1013.0
20260509021707 53 236 2.0 3.0 0.00 0.00 0.00 90 1013.0
20260509021219 53 220 2.0 5.0 0.00 0.00 0.00 90 1013.0
20260509020706 53 215 2.0 5.0 0.00 0.00 0.00 91 1013.1
20260509020207 53 239 2.0 4.0 0.00 0.00 0.00 91 1013.1
20260509015719 53 250 3.0 4.0 0.00 0.00 0.00 91 1013.2
20260509015210 53 240 1.0 2.0 0.00 0.00 0.00 90 1013.2
20260509014712 53 194 1.0 2.0 0.00 0.00 0.00 90 1013.2
20260509014208 53 213 0.0 2.0 0.00 0.00 0.00 90 1013.3
20260509013717 53 0 0.0 2.0 0.00 0.00 0.00 90 1013.2
20260509013216 53 170 0.0 1.0 0.00 0.00 0.00 90 1013.3
20260509012708 53 180 0.0 2.0 0.00 0.00 0.00 90 1013.3
20260509012232 53 168 0.0 3.0 0.00 0.00 0.00 90 1013.4
20260509011710 53 208 0.0 3.0 0.00 0.00 0.00 90 1013.4
20260509011207 53 164 1.0 3.0 0.00 0.00 0.00 90 1013.4
20260509010709 53 171 1.0 3.0 0.00 0.00 0.00 90 1013.4
20260509005718 54 172 1.0 3.0 0.00 0.00 0.00 90 1013.5
20260509005211 54 174 1.0 3.0 0.00 0.00 0.00 89 1013.5
20260509004711 54 143 1.0 4.0 0.00 0.00 0.00 89 1013.5
20260509004205 54 202 1.0 4.0 0.00 0.00 0.00 89 1013.5
20260509003716 54 175 0.0 4.0 0.00 0.00 0.00 89 1013.5
20260509003219 54 182 2.0 4.0 0.00 0.00 0.00 89 1013.3
20260509002716 55 223 0.0 3.0 0.00 0.00 0.00 88 1013.4
20260509001710 55 167 2.0 3.0 0.00 0.00 0.00 88 1013.3
20260509001206 55 150 2.0 3.0 0.00 0.00 0.00 88 1013.4
20260509000212 56 171 0.0 2.0 0.00 0.00 0.00 88 1013.4
20260508235705 56 163 1.0 3.0 0.00 0.00 0.00 88 1013.4
20260508235205 56 160 2.0 3.0 0.00 0.00 0.00 87 1013.4
20260508234713 56 136 0.0 0.0 0.00 0.00 0.00 87 1013.3
20260508234216 56 0 0.0 0.0 0.00 0.00 0.00 87 1013.4
20260508233713 57 0 0.0 0.0 0.00 0.00 0.00 88 1013.4
20260508233210 57 0 0.0 0.0 0.00 0.00 0.00 87 1013.4
20260508232713 57 0 0.0 0.0 0.00 0.00 0.00 87 1013.4
20260508232206 57 0 0.0 0.0 0.00 0.00 0.00 87 1013.5
20260508231736 57 0 0.0 0.0 0.00 0.00 0.00 87 1013.5
20260508231217 57 0 0.0 0.0 0.00 0.00 0.00 86 1013.5
20260508230705 57 0 0.0 0.0 0.00 0.00 0.00 86 1013.5
20260508230205 58 0 0.0 0.0 0.00 0.00 0.00 85 1013.5
20260508225706 58 0 0.0 0.0 0.00 0.00 0.00 85 1013.5
20260508225214 58 0 0.0 3.0 0.00 0.00 0.00 84 1013.6
20260508224715 58 0 0.0 3.0 0.00 0.00 0.00 84 1013.6
20260508224207 58 63 1.0 4.0 0.00 0.00 0.00 84 1013.6
20260508223712 59 26 0.0 4.0 0.00 0.00 0.00 84 1013.7
20260508223213 59 1 2.0 6.0 0.00 0.00 0.00 84 1013.6
20260508222710 59 1 2.0 6.0 0.00 0.00 0.00 84 1013.5
20260508222216 59 337 3.0 7.0 0.00 0.00 0.00 83 1013.5
20260508221717 59 5 3.0 7.0 0.00 0.00 0.00 83 1013.5
20260508221213 59 23 3.0 5.0 0.00 0.00 0.00 83 1013.5
20260508220717 59 28 3.0 7.0 0.00 0.00 0.00 82 1013.4
20260508220207 59 47 2.0 7.0 0.00 0.00 0.00 82 1013.3
20260508215714 59 73 5.0 7.0 0.00 0.00 0.00 82 1013.3
20260508215206 60 74 5.0 7.0 0.00 0.00 0.00 81 1013.2
20260508214708 60 21 3.0 8.0 0.00 0.00 0.00 81 1013.2
20260508213716 60 49 5.0 11.0 0.00 0.00 0.00 80 1013.0
20260508213211 60 67 6.0 11.0 0.00 0.00 0.00 80 1013.0
20260508212706 60 32 6.0 9.0 0.00 0.00 0.00 80 1012.9
20260508212214 60 49 5.0 11.0 0.00 0.00 0.00 80 1012.9
20260508211710 60 26 6.0 11.0 0.00 0.00 0.00 80 1013.1
20260508211209 60 12 6.0 10.0 0.00 0.00 0.00 80 1013.0
20260508210718 61 11 6.0 13.0 0.00 0.00 0.00 79 1013.1
20260508210207 61 19 6.0 13.0 0.00 0.00 0.00 79 1013.1
20260508204711 61 2 6.0 11.0 0.00 0.00 0.00 79 1013.1
20260508204217 61 12 6.0 11.0 0.00 0.00 0.00 79 1013.1
20260508203708 61 26 7.0 11.0 0.00 0.00 0.00 78 1013.0
20260508203212 61 347 5.0 12.0 0.00 0.00 0.00 78 1013.0
20260508202718 62 29 6.0 12.0 0.00 0.00 0.00 78 1013.0
20260508202207 62 42 7.0 12.0 0.00 0.00 0.00 78 1012.9
20260508201708 62 14 6.0 12.0 0.00 0.00 0.00 78 1012.9
20260508201206 62 37 6.0 11.0 0.00 0.00 0.00 78 1012.8
20260508200704 62 18 7.0 13.0 0.00 0.00 0.00 78 1012.7
20260508200209 62 5 7.0 13.0 0.00 0.00 0.00 78 1012.7
20260508195708 62 29 8.0 14.0 0.00 0.00 0.00 78 1012.6
20260508194712 62 19 7.0 13.0 0.00 0.00 0.00 77 1012.4
20260508194213 62 25 8.0 13.0 0.00 0.00 0.00 77 1012.4
20260508193717 63 9 6.0 13.0 0.00 0.00 0.00 76 1012.4
20260508192707 63 12 6.0 12.0 0.00 0.00 0.00 75 1012.3
20260508192205 63 35 6.0 12.0 0.00 0.00 0.00 74 1012.2
20260508191714 64 14 6.0 14.0 0.00 0.00 0.00 74 1012.2
20260508190710 64 36 8.0 13.0 0.00 0.00 0.00 73 1012.0
20260508190206 64 32 7.0 15.0 0.00 0.00 0.00 73 1011.7
20260508185707 65 64 7.0 15.0 0.00 0.00 0.00 72 1011.7
20260508185208 65 21 8.0 12.0 0.00 0.00 0.00 72 1011.7
20260508183208 66 23 6.0 10.0 0.00 0.00 0.00 69 1011.5
20260508182706 67 94 6.0 13.0 0.00 0.00 0.00 67 1011.5
20260508182207 67 52 4.0 13.0 0.00 0.00 0.00 65 1011.3
20260508181705 68 56 7.0 13.0 0.00 0.00 0.00 64 1011.1
20260508181206 68 63 5.0 13.0 0.00 0.00 0.00 63 1011.1
20260508180713 69 74 5.0 13.0 0.00 0.00 0.00 62 1010.9
20260508180217 69 67 6.0 13.0 0.00 0.00 0.00 61 1010.8
20260508175206 69 70 5.0 15.0 0.00 0.00 0.00 59 1010.8
20260508174718 70 46 4.0 15.0 0.00 0.00 0.00 59 1010.8
20260508174211 70 42 8.0 15.0 0.00 0.00 0.00 58 1010.7
20260508173706 70 50 6.0 16.0 0.00 0.00 0.00 58 1010.7
20260508172705 70 32 8.0 15.0 0.00 0.00 0.00 58 1010.6
20260508172210 70 47 8.0 16.0 0.00 0.00 0.00 58 1010.7
20260508171719 70 19 6.0 16.0 0.00 0.00 0.00 58 1010.7
20260508171207 70 64 7.0 18.0 0.00 0.00 0.00 59 1010.7
20260508170208 70 68 7.0 18.0 0.00 0.00 0.00 58 1010.6
20260508165709 70 43 9.0 16.0 0.00 0.00 0.00 58 1010.6
20260508165206 71 2 9.0 16.0 0.00 0.00 0.00 58 1010.4
20260508164707 71 29 9.0 16.0 0.00 0.00 0.00 58 1010.5
20260508164213 71 56 9.0 17.0 0.00 0.00 0.00 58 1010.4
20260508163716 71 64 8.0 17.0 0.00 0.00 0.00 58 1010.4
20260508162717 71 46 8.0 18.0 0.00 0.00 0.00 56 1010.3
20260508162219 72 59 7.0 17.0 0.00 0.00 0.00 56 1010.3
20260508161714 72 29 7.0 17.0 0.00 0.00 0.00 56 1010.2
20260508161210 72 78 9.0 17.0 0.00 0.00 0.00 56 1010.3
20260508160705 72 61 7.0 15.0 0.00 0.00 0.00 56 1010.3
20260508160229 72 67 8.0 17.0 0.00 0.00 0.00 54 1010.4
20260508155706 73 64 6.0 17.0 0.00 0.00 0.00 53 1010.5
20260508155206 73 60 5.0 17.0 0.00 0.00 0.00 55 1010.6
20260508154213 73 63 5.0 13.0 0.00 0.00 0.00 55 1010.5
20260508153719 73 49 6.0 17.0 0.00 0.00 0.00 55 1010.6
20260508153218 74 78 6.0 17.0 0.00 0.00 0.00 56 1010.6
20260508152706 74 112 7.0 17.0 0.00 0.00 0.00 55 1010.7
20260508152224 74 140 4.0 16.0 0.00 0.00 0.00 54 1010.7
20260508151718 74 50 7.0 16.0 0.00 0.00 0.00 55 1010.7
20260508151212 73 109 6.0 16.0 0.00 0.00 0.00 54 1010.8
20260508150212 73 74 6.0 16.0 0.00 0.00 0.00 55 1010.7
20260508145708 73 98 5.0 16.0 0.00 0.00 0.00 53 1010.7
20260508145212 73 109 7.0 18.0 0.00 0.00 0.00 52 1010.7
20260508144717 73 120 7.0 18.0 0.00 0.00 0.00 53 1010.7
20260508144210 73 67 8.0 15.0 0.00 0.00 0.00 52 1010.7
20260508143218 73 19 9.0 16.0 0.00 0.00 0.00 51 1010.7
20260508142707 73 67 8.0 16.0 0.00 0.00 0.00 54 1010.7
20260508142218 72 53 9.0 16.0 0.00 0.00 0.00 55 1010.7
20260508141712 72 25 7.0 15.0 0.00 0.00 0.00 55 1010.8
20260508141207 73 67 8.0 15.0 0.00 0.00 0.00 56 1010.8
20260508140708 72 37 7.0 15.0 0.00 0.00 0.00 55 1010.8
20260508140210 72 23 4.0 14.0 0.00 0.00 0.00 55 1010.9
20260508135711 72 67 6.0 14.0 0.00 0.00 0.00 55 1010.8
20260508135218 72 80 6.0 17.0 0.00 0.00 0.00 56 1010.9
20260508134707 71 68 7.0 17.0 0.00 0.00 0.00 55 1011.1
20260508134215 71 12 9.0 17.0 0.00 0.00 0.00 55 1011.1
20260508133209 71 52 7.0 14.0 0.00 0.00 0.00 55 1011.0
20260508132712 71 147 5.0 17.0 0.00 0.00 0.00 55 1010.9
20260508132217 71 50 6.0 17.0 0.00 0.00 0.00 54 1011.0
20260508131705 71 63 8.0 17.0 0.00 0.00 0.00 56 1011.1
20260508131215 71 82 8.0 15.0 0.00 0.00 0.00 55 1011.1
20260508130713 71 49 6.0 15.0 0.00 0.00 0.00 54 1011.1
20260508130208 71 74 6.0 13.0 0.00 0.00 0.00 55 1011.1
20260508125714 70 84 5.0 5.0 0.00 0.00 0.00 56 1011.2
20260508125207 71 50 5.0 14.0 0.00 0.00 0.00 56 1011.3
20260508124717 71 73 5.0 15.0 0.00 0.00 0.00 55 1011.3
20260508124210 71 109 6.0 15.0 0.00 0.00 0.00 55 1011.2
20260508123718 71 56 7.0 13.0 0.00 0.00 0.00 55 1011.1
20260508123216 71 95 4.0 15.0 0.00 0.00 0.00 55 1011.1
20260508122206 72 116 6.0 13.0 0.00 0.00 0.00 53 1011.0
20260508121210 71 50 5.0 14.0 0.00 0.00 0.00 54 1011.1
20260508120712 71 125 5.0 14.0 0.00 0.00 0.00 53 1011.2
20260508120217 71 59 7.0 15.0 0.00 0.00 0.00 53 1011.2
20260508115715 71 73 6.0 17.0 0.00 0.00 0.00 53 1011.4
20260508115217 72 53 5.0 17.0 0.00 0.00 0.00 53 1011.4
20260508114708 71 108 8.0 16.0 0.00 0.00 0.00 53 1011.4
20260508114212 72 47 7.0 19.0 0.00 0.00 0.00 53 1011.5
20260508113215 71 56 9.0 19.0 0.00 0.00 0.00 53 1011.6
20260508111706 72 129 4.0 16.0 0.00 0.00 0.00 49 1011.6
20260508111215 72 53 7.0 16.0 0.00 0.00 0.00 49 1011.7
20260508110718 72 35 9.0 16.0 0.00 0.00 0.00 50 1011.7
20260508110208 71 54 7.0 15.0 0.00 0.00 0.00 51 1011.7
20260508105717 71 28 7.0 15.0 0.00 0.00 0.00 53 1011.7
20260508104719 70 28 7.0 19.0 0.00 0.00 0.00 57 1011.9
20260508104214 70 43 9.0 19.0 0.00 0.00 0.00 58 1011.9
20260508103708 69 42 8.0 15.0 0.00 0.00 0.00 57 1012.1
20260508102706 69 53 7.0 15.0 0.00 0.00 0.00 61 1012.1
20260508101707 69 21 7.0 17.0 0.00 0.00 0.00 60 1012.4
20260508101212 69 36 9.0 17.0 0.00 0.00 0.00 62 1012.3
20260508100706 68 42 10.0 18.0 0.00 0.00 0.00 64 1012.3
20260508100206 67 357 8.0 19.0 0.00 0.00 0.00 65 1012.4
20260508095212 67 29 9.0 18.0 0.00 0.00 0.00 66 1012.6
20260508094206 66 45 9.0 17.0 0.00 0.00 0.00 67 1012.6
20260508093214 65 54 9.0 18.0 0.00 0.00 0.00 68 1012.7
20260508092211 65 42 10.0 19.0 0.00 0.00 0.00 69 1012.6
20260508091706 65 23 8.0 20.0 0.00 0.00 0.00 70 1012.7
20260508090713 64 49 8.0 20.0 0.00 0.00 0.00 70 1012.6
20260508090217 64 18 8.0 19.0 0.00 0.00 0.00 72 1012.6
20260508085712 64 21 10.0 21.0 0.00 0.00 0.00 71 1012.7
20260508085218 64 66 11.0 21.0 0.00 0.00 0.00 72 1012.7
20260508084710 63 30 11.0 21.0 0.00 0.00 0.00 74 1012.8
20260508084208 62 18 11.0 18.0 0.00 0.00 0.00 74 1012.7
20260508083709 62 22 10.0 18.0 0.00 0.00 0.00 76 1012.7
20260508083216 62 22 9.0 18.0 0.00 0.00 0.00 76 1012.8
20260508082710 62 21 9.0 15.0 0.00 0.00 0.00 75 1013.0
20260508082211 62 40 7.0 15.0 0.00 0.00 0.00 76 1012.9
20260508081718 62 50 9.0 17.0 0.00 0.00 0.00 76 1012.8
20260508081208 62 29 9.0 17.0 0.00 0.00 0.00 78 1012.9
20260508080718 61 29 8.0 17.0 0.00 0.00 0.00 77 1013.0
20260508080214 61 22 8.0 12.0 0.00 0.00 0.00 77 1012.9
20260508074711 61 334 7.0 13.0 0.00 0.00 0.00 79 1013.0
20260508074217 60 67 6.0 13.0 0.00 0.00 0.00 80 1013.0
20260508073714 61 61 8.0 13.0 0.00 0.00 0.00 79 1013.0
20260508073219 60 57 7.0 13.0 0.00 0.00 0.00 80 1013.0
20260508072717 60 5 7.0 11.0 0.00 0.00 0.00 81 1012.9
20260508072205 60 28 6.0 11.0 0.00 0.00 0.00 81 1013.0
20260508071705 60 68 3.0 5.0 0.00 0.00 0.00 82 1012.9
20260508071216 60 98 1.0 5.0 0.00 0.00 0.00 83 1012.9
20260508070205 57 0 0.0 0.0 0.00 0.00 0.00 87 1013.0
20260508065716 56 0 0.0 0.0 0.00 0.00 0.00 87 1013.0
20260508065215 55 0 0.0 0.0 0.00 0.00 0.00 87 1013.2
20260508064717 54 0 0.0 1.0 0.00 0.00 0.00 88 1013.0
20260508063718 53 199 0.0 1.0 0.00 0.00 0.00 89 1013.0
20260508063207 52 0 0.0 2.0 0.00 0.00 0.00 91 1013.0
20260508062712 51 118 0.0 2.0 0.00 0.00 0.00 91 1013.0
20260508062217 51 174 0.0 3.0 0.00 0.00 0.00 91 1013.1
20260508061708 50 181 1.0 3.0 0.00 0.00 0.00 92 1013.1
20260508060716 49 161 1.0 3.0 0.00 0.00 0.00 92 1013.0
20260508060209 49 160 1.0 3.0 0.00 0.00 0.00 93 1013.0
20260508054708 48 0 0.0 0.0 0.00 0.00 0.00 93 1012.8
20260508054213 48 0 0.0 0.0 0.00 0.00 0.00 93 1012.8
20260508053715 47 0 0.0 0.0 0.00 0.00 0.00 93 1012.9
20260508053206 47 0 0.0 0.0 0.00 0.00 0.00 93 1012.7
20260508052708 47 0 0.0 0.0 0.00 0.00 0.00 93 1012.8
20260508052213 47 0 0.0 0.0 0.00 0.00 0.00 93 1012.7
20260508051709 47 0 0.0 0.0 0.00 0.00 0.00 93 1012.7
20260508051219 47 0 0.0 0.0 0.00 0.00 0.00 93 1012.6
20260508050720 47 0 0.0 0.0 0.00 0.00 0.00 93 1012.5
20260508050217 47 0 0.0 0.0 0.00 0.00 0.00 93 1012.3
20260508045719 48 0 0.0 0.0 0.00 0.00 0.00 93 1012.3